WB5LFS-1 Weather Reports


Display with metric or nautical units.
time (UTC)temp
F
wind
direction
speed
MPH
gust
MPH
rain 1hr
in
rain 24hr
in
rain mn
in
humidity
%
barometer
mb
20260507125645 56 105 0.0 0.0 0.01 0.18 0.14 92 1011.4
20260507124145 56 105 0.0 1.0 0.02 0.18 0.14 92 1011.1
20260507122645 57 256 0.0 1.0 0.02 0.18 0.14 92 1011.3
20260507121145 57 0 0.0 2.0 0.01 0.17 0.13 92 1011.2
20260507115645 57 15 0.0 4.0 0.03 0.17 0.13 92 1011.3
20260507114145 57 100 0.0 2.0 0.03 0.16 0.12 92 1010.9
20260507112645 58 33 0.0 0.0 0.03 0.16 0.12 92 1011.2
20260507111145 58 309 0.0 2.0 0.05 0.16 0.12 92 1011.0
20260507105645 58 279 0.0 0.0 0.03 0.14 0.10 92 1010.8
20260507104145 59 73 0.0 2.0 0.02 0.13 0.09 92 1010.4
20260507102645 59 310 0.0 2.0 0.02 0.13 0.09 92 1010.4
20260507101146 59 13 0.0 2.0 0.01 0.11 0.07 91 1010.4
20260507095645 59 315 0.0 3.0 0.05 0.11 0.07 91 1010.3
20260507094145 60 273 1.0 4.0 0.07 0.11 0.07 91 1010.2
20260507092645 62 286 2.0 12.0 0.07 0.11 0.07 89 1010.0
20260507091145 66 311 0.0 9.0 0.06 0.10 0.06 93 1009.7
20260507085645 66 290 0.0 0.0 0.02 0.06 0.02 92 1009.3
20260507084145 66 290 0.0 0.0 0.00 0.04 0.00 91 1009.2
20260507082645 67 290 0.0 0.0 0.00 0.04 0.00 91 1009.1
20260507081145 67 290 0.0 0.0 0.00 0.04 0.00 90 1009.2
20260507075645 67 290 0.0 0.0 0.00 0.04 0.00 89 1009.0
20260507074145 67 285 0.0 2.0 0.00 0.04 0.00 89 1009.2
20260507072645 67 246 0.0 1.0 0.00 0.04 0.00 88 1009.2
20260507071145 67 287 0.0 0.0 0.00 0.04 0.00 88 1009.1
20260507065645 67 22 0.0 2.0 0.00 0.04 0.00 89 1008.8
20260507064145 67 205 0.0 3.0 0.00 0.04 0.00 89 1008.9
20260507062645 68 65 0.0 0.0 0.00 0.04 0.00 88 1008.6
20260507061145 68 136 0.0 0.0 0.00 0.04 0.00 87 1008.7
20260507055646 69 128 0.0 2.0 0.00 0.04 0.00 85 1009.4
20260507054146 69 125 0.0 0.0 0.00 0.04 0.00 83 1009.6
20260507052646 69 177 0.0 2.0 0.00 0.04 0.00 83 1009.8
20260507051146 70 252 0.0 4.0 0.00 0.04 0.00 82 1010.2
20260507045646 69 0 0.0 0.0 0.00 0.04 0.00 81 1010.2
20260507044146 70 158 0.0 0.0 0.00 0.04 0.00 80 1010.2
20260507042646 69 0 0.0 0.0 0.00 0.04 0.00 81 1010.1
20260507041146 69 140 0.0 1.0 0.00 0.04 0.00 82 1009.9
20260507035646 68 0 0.0 0.0 0.00 0.04 0.04 83 1010.0
20260507034146 68 0 0.0 0.0 0.00 0.04 0.04 83 1010.1
20260507032646 68 0 0.0 2.0 0.00 0.04 0.04 84 1010.0
20260507031146 67 0 0.0 0.0 0.00 0.04 0.04 84 1009.9
20260507025646 67 0 0.0 0.0 0.00 0.04 0.04 84 1010.0
20260507024146 67 0 0.0 0.0 0.00 0.04 0.04 85 1010.1
20260507022646 67 0 0.0 0.0 0.00 0.04 0.04 85 1010.2
20260507021146 67 0 0.0 0.0 0.00 0.04 0.04 84 1010.2
20260507015646 67 0 0.0 0.0 0.00 0.04 0.04 83 1010.2
20260507014146 67 0 0.0 0.0 0.00 0.04 0.04 83 1010.2
20260507012646 68 0 0.0 0.0 0.00 0.04 0.04 82 1010.4
20260507011146 69 0 0.0 0.0 0.00 0.04 0.04 80 1010.3
20260507005646 69 0 0.0 0.0 0.00 0.04 0.04 79 1010.1
20260507004146 70 0 0.0 0.0 0.00 0.04 0.04 78 1010.2
20260507002646 70 0 0.0 0.0 0.00 0.04 0.04 78 1010.1
20260507001146 70 0 0.0 0.0 0.00 0.04 0.04 77 1010.0
20260506235646 71 0 0.0 0.0 0.00 0.04 0.04 76 1010.0
20260506234146 72 0 0.0 0.0 0.00 0.04 0.04 74 1009.9
20260506232646 72 261 0.0 0.0 0.00 0.04 0.04 73 1009.8
20260506231146 72 194 0.0 0.0 0.00 0.04 0.04 73 1009.8
20260506225646 72 252 0.0 2.0 0.00 0.04 0.04 74 1009.6
20260506224146 73 237 0.0 2.0 0.00 0.04 0.04 72 1009.5
20260506222646 73 324 0.0 2.0 0.00 0.04 0.04 72 1009.6
20260506221146 74 153 0.0 3.0 0.00 0.04 0.04 70 1009.7
20260506215646 74 317 0.0 2.0 0.00 0.04 0.04 71 1009.9
20260506214146 73 297 0.0 0.0 0.00 0.04 0.04 71 1009.9
20260506212646 73 0 0.0 1.0 0.00 0.04 0.04 72 1009.6
20260506211146 73 309 0.0 2.0 0.00 0.04 0.04 70 1009.9
20260506205646 74 292 0.0 0.0 0.00 0.04 0.04 71 1009.9
20260506204146 73 279 0.0 6.0 0.00 0.04 0.04 69 1009.6
20260506202646 72 281 0.0 1.0 0.00 0.04 0.04 72 1009.4
20260506201146 72 199 0.0 1.0 0.00 0.04 0.04 73 1009.1
20260506195646 72 167 1.0 6.0 0.00 0.04 0.04 72 1009.5
20260506194146 72 69 0.0 2.0 0.00 0.04 0.04 72 1009.7
20260506192646 71 0 0.0 0.0 0.00 0.04 0.04 74 1009.9
20260506191146 70 0 0.0 8.0 0.00 0.04 0.04 78 1010.3
20260506185646 69 0 0.0 2.0 0.00 0.04 0.04 78 1010.9
20260506184146 68 0 0.0 2.0 0.00 0.04 0.04 80 1011.1
20260506182646 68 0 0.0 0.0 0.00 0.04 0.04 81 1011.4
20260506181146 70 213 0.0 0.0 0.00 0.04 0.04 77 1011.5
20260506175646 70 229 0.0 0.0 0.00 0.04 0.04 72 1011.5
20260506174146 69 163 1.0 9.0 0.00 0.04 0.04 75 1011.4
20260506172646 69 0 0.0 2.0 0.00 0.04 0.04 80 1011.5
20260506171146 68 0 0.0 9.0 0.00 0.04 0.04 78 1011.3
20260506165646 66 0 0.0 9.0 0.00 0.04 0.04 82 1011.6
20260506164146 65 0 0.0 2.0 0.02 0.04 0.04 85 1012.1
20260506162646 65 0 0.0 1.0 0.03 0.04 0.04 87 1012.1
20260506161146 64 0 0.0 0.0 0.03 0.04 0.04 89 1012.3
20260506155646 64 0 0.0 0.0 0.03 0.04 0.04 86 1012.5
20260506154146 64 0 0.0 0.0 0.02 0.02 0.02 86 1012.9
20260506152646 65 0 0.0 0.0 0.01 0.01 0.01 85 1013.3
20260506151147 65 0 0.0 0.0 0.01 0.01 0.01 83 1013.4
20260506145647 66 0 0.0 0.0 0.01 0.01 0.01 80 1013.4
20260506144147 69 0 1.0 9.0 0.00 0.00 0.00 73 1013.6
20260506142647 69 0 0.0 2.0 0.00 0.00 0.00 71 1012.8
20260506141147 67 0 1.0 8.0 0.00 0.00 0.00 73 1012.7
20260506135647 66 0 0.0 8.0 0.00 0.00 0.00 77 1013.0
20260506134147 66 0 0.0 0.0 0.00 0.00 0.00 78 1012.7
20260506132647 66 0 1.0 8.0 0.00 0.00 0.00 76 1012.5
20260506131147 67 0 1.0 9.0 0.00 0.00 0.00 74 1012.7